Weather History for Naples, FL

Change the Weather History Date:

Monday, May 21, 2012

  Actual Average Record
Temperature  
Mean Temperature 78 °F 79 °F  
Max Temperature 86 °F 89 °F 93 °F (1975)
Min Temperature 70 °F 70 °F 59 °F (1971)
Degree Days  
Heating Degree Days 0 0  
Month to date heating degree days 0 0  
Since 1 July heating degree days 121 260  
Cooling Degree Days 13 14  
Month to date cooling degree days 286 261  
Year to date cooling degree days 1100 881  
Growing Degree Days 26 (Base 50)    
Moisture  
Dew Point 70 °F    
Average Humidity 80    
Maximum Humidity 100    
Minimum Humidity 59    
Precipitation  
Precipitation 0.00 in 0.12 in 2.45 in (1996)
Month to date precipitation 2.11 1.77  
Year to date precipitation 8.96 10.46  
Snow  
Snow 0.00 in - - ()
Month to date snowfall 0.0  
Since 1 July snowfall 0.0  
Snow Depth 0.00 in    
Sea Level Pressure  
Sea Level Pressure 29.96 in    
Wind  
Wind Speed 6 mph (NNE)    
Max Wind Speed 14 mph    
Max Gust Speed 17 mph    
Visibility 10 miles    
Events      
T = Trace of Precipitation, MM = Missing Value Source: NWS Daily Summary

Daily Weather History Graph

Daily Weather History Graph

Search for Another Location

Airport:

Trip Planner

Search our weather history database for the weather conditions in past years. The results will help you decide how hot, cold, wet, or windy it might be!

Date:

Astronomy

May. 21, 2012 Rise Set
Actual Time 6:37 AM EDT 8:09 PM EDT
Civil Twilight 6:12 AM EDT 8:35 PM EDT
Nautical Twilight 5:42 AM EDT 9:05 PM EDT
Astronomical Twilight 5:10 AM EDT 9:37 PM EDT
Moon 7:01 AM EDT (5/21) 8:56 PM EDT (5/21)
Length of Visible Light 14h 22m
Length of Day
13h 32m
New Moon, 0% of the Moon is Illuminated
May 21
New Moon
May 28
First Quarter
Jun 4
Full
Jun 11
Last Quarter
Jun 19
New

Hourly Weather History & Observations

Time (EDT) Temp. Heat Index Dew Point Humidity Pressure Visibility Wind Dir Wind Speed Gust Speed Precip Events Conditions
12:53 AM 73.0 °F - 70.0 °F 90% 29.97 in 10.0 mi East 6.9 mph - N/A   Clear
1:53 AM 72.0 °F - 70.0 °F 93% 29.96 in 10.0 mi ENE 6.9 mph - N/A   Partly Cloudy
2:53 AM 72.0 °F - 69.1 °F 91% 29.94 in 10.0 mi ENE 5.8 mph - N/A   Clear
3:53 AM 71.1 °F - 69.1 °F 93% 29.93 in 10.0 mi NE 4.6 mph - N/A   Clear
4:53 AM 71.1 °F - 69.1 °F 93% 29.93 in 10.0 mi ENE 4.6 mph - N/A   Clear
5:27 AM 71.6 °F - 69.8 °F 94% 29.94 in 10.0 mi East 5.8 mph - N/A   Mostly Cloudy
5:53 AM 71.1 °F - 69.1 °F 93% 29.94 in 10.0 mi East 3.5 mph - N/A   Mostly Cloudy
6:03 AM 69.8 °F - 69.8 °F 100% 29.94 in 10.0 mi ENE 4.6 mph - N/A   Scattered Clouds
6:53 AM 70.0 °F - 69.1 °F 97% 29.96 in 10.0 mi ENE 4.6 mph - N/A   Partly Cloudy
7:53 AM 72.0 °F - 69.1 °F 91% 29.98 in 10.0 mi East 8.1 mph - N/A   Clear
8:53 AM 75.0 °F - 68.0 °F 79% 29.99 in 10.0 mi ENE 8.1 mph - N/A   Clear
9:53 AM 80.1 °F 83.2 °F 70.0 °F 71% 29.99 in 10.0 mi East 6.9 mph - N/A   Clear
10:53 AM 82.9 °F 87.5 °F 71.1 °F 67% 29.99 in 10.0 mi SSE 4.6 mph - N/A   Partly Cloudy
11:36 AM 82.4 °F 86.3 °F 69.8 °F 66% 30.00 in 10.0 mi Calm Calm - N/A   Mostly Cloudy
11:53 AM 84.9 °F 88.8 °F 69.1 °F 59% 30.00 in 10.0 mi Calm Calm - N/A   Mostly Cloudy
12:14 PM 82.4 °F 87.2 °F 71.6 °F 70% 30.00 in 10.0 mi West 6.9 mph - N/A   Mostly Cloudy
12:53 PM 84.0 °F 89.0 °F 71.1 °F 65% 29.99 in 10.0 mi West 9.2 mph - N/A   Mostly Cloudy
1:53 PM 84.9 °F 90.7 °F 72.0 °F 65% 29.98 in 10.0 mi West 11.5 mph - N/A   Clear
2:53 PM 84.9 °F 90.1 °F 71.1 °F 63% 29.96 in 10.0 mi West 10.4 mph - N/A   Scattered Clouds
3:53 PM 84.9 °F 88.2 °F 68.0 °F 57% 29.94 in 10.0 mi West 12.7 mph - N/A   Scattered Clouds
4:53 PM 84.9 °F 88.8 °F 69.1 °F 59% 29.93 in 10.0 mi West 8.1 mph - N/A   Clear
5:53 PM 84.0 °F 89.0 °F 71.1 °F 65% 29.92 in 10.0 mi West 10.4 mph - N/A   Partly Cloudy
6:53 PM 82.9 °F 87.5 °F 71.1 °F 67% 29.92 in 10.0 mi West 9.2 mph - N/A   Clear
7:53 PM 81.0 °F 84.9 °F 71.1 °F 72% 29.93 in 10.0 mi WNW 6.9 mph - N/A   Clear
8:53 PM 80.1 °F 83.6 °F 71.1 °F 74% 29.94 in 10.0 mi WNW 4.6 mph - N/A   Clear
9:53 PM 80.1 °F 83.2 °F 70.0 °F 71% 29.95 in 10.0 mi NW 4.6 mph - N/A   Clear
10:53 PM 78.1 °F - 69.1 °F 74% 29.97 in 10.0 mi ENE 4.6 mph - N/A   Clear